Watsonville, CA

9:24 PM PDT on September 26, 2016 (GMT -0700)
Watsonville Municipal

Weather History for KWVI - February, 2014

Change the Weather History Date:

Thursday, February 6, 2014

  Actual Average Record
Temperature  
Mean Temperature 50 °F 51 °F  
Max Temperature 54 °F 62 °F 76 °F (2011)
Min Temperature 46 °F 41 °F 29 °F (2003)
Degree Days  
Heating Degree Days 15    
Month to date heating degree days 106  
Since 1 July heating degree days 1528  
Cooling Degree Days 0    
Month to date cooling degree days 0  
Year to date cooling degree days 0  
Moisture  
Dew Point 46 °F    
Average Humidity 88    
Maximum Humidity 93    
Minimum Humidity 83    
Precipitation  
Precipitation 0.51 in - 1.35 in (1999)
Month to date precipitation 0.81  
Year to date precipitation 0.86  
Since 1 July precipitation 1.93  
Sea Level Pressure  
Sea Level Pressure 29.99 in    
Wind  
Wind Speed 3 mph (ENE)    
Max Wind Speed 17 mph    
Max Gust Speed 25 mph    
Visibility 8 miles    
Events Rain    
T = Trace of Precipitation, MM = Missing Value Source: NWS Daily Summary

Daily Weather History Graph

Daily Weather History Graph

Search for Another Location

Airport or City:

Trip Planner

Search our weather history database for the weather conditions in past years. The results will help you decide how hot, cold, wet, or windy it might be!

Date:

Astronomy

Feb. 06, 2014 Rise Set
Actual Time 7:05 AM PST 5:37 PM PST
Civil Twilight 6:38 AM PST 6:04 PM PST
Nautical Twilight 6:07 AM PST 6:35 PM PST
Astronomical Twilight 5:36 AM PST 7:06 PM PST
Moon 11:13 AM PST (2/6) 12:26 AM PST (2/6)
Length of Visible Light 11h 26m
Length of Day
10h 32m
Waxing Crescent, 50% of the Moon is Illuminated
Feb 6
Waxing Crescent
Feb 14
Full
Feb 22
Last Quarter
Mar 1
New
Mar 8
First Quarter

Hourly Weather History & Observations

Time (PST) Temp. Windchill Dew Point Humidity Pressure Visibility Wind Dir Wind Speed Gust Speed Precip Events Conditions
12:25 AM 48.2 °F - 44.6 °F 87% 30.09 in 10.0 mi ENE 3.5 mph - 0.01 in Rain Light Rain
12:53 AM 48.0 °F - 45.0 °F 89% 30.08 in 10.0 mi ENE 3.5 mph - 0.01 in Rain Light Rain
1:06 AM 46.4 °F 42.9 °F 44.6 °F 93% 30.08 in 9.0 mi East 6.9 mph - 0.00 in Rain Light Rain
1:20 AM 46.4 °F 43.5 °F 44.6 °F 93% 30.07 in 10.0 mi East 5.8 mph - 0.00 in   Overcast
1:22 AM 46.4 °F 43.5 °F 44.6 °F 93% 30.07 in 10.0 mi East 5.8 mph - 0.00 in   Overcast
1:53 AM 48.0 °F - 44.1 °F 86% 30.06 in 10.0 mi ENE 3.5 mph - 0.00 in Rain Light Rain
2:53 AM 46.9 °F - 45.0 °F 93% 30.04 in 10.0 mi Calm Calm - 0.01 in Rain Light Rain
3:53 AM 46.9 °F - 45.0 °F 93% 30.01 in 10.0 mi ENE 3.5 mph - 0.02 in   Overcast
4:03 AM 46.4 °F 45.2 °F 44.6 °F 93% 30.01 in 10.0 mi NNE 3.5 mph - 0.00 in Rain Light Rain
4:53 AM 46.9 °F - 45.0 °F 93% 30.00 in 9.0 mi North 3.5 mph - 0.01 in Rain Light Rain
5:53 AM 46.9 °F - 45.0 °F 93% 29.97 in 7.0 mi North 3.5 mph - 0.06 in Rain Rain
6:53 AM 46.9 °F - 45.0 °F 93% 29.94 in 8.0 mi Calm Calm - 0.05 in Rain Rain
7:53 AM 46.9 °F - 44.1 °F 90% 29.95 in 4.0 mi NNW 3.5 mph - 0.15 in Rain Heavy Rain
8:24 AM 46.4 °F 41.9 °F 44.6 °F 93% 29.93 in 4.0 mi East 9.2 mph - 0.13 in Rain Heavy Rain
8:53 AM 46.9 °F - 44.1 °F 90% 29.93 in 4.0 mi ENE 10.4 mph - 0.18 in Rain Rain
9:53 AM 48.0 °F - 46.9 °F 96% 29.94 in 4.0 mi East 6.9 mph - 0.01 in Rain Light Rain
10:16 AM 48.2 °F - 48.2 °F 100% 29.95 in 5.0 mi ENE 6.9 mph - 0.01 in Rain Light Rain
10:53 AM 50.0 °F - 48.9 °F 96% 29.95 in 5.0 mi East 8.1 mph - 0.01 in Rain Light Rain
11:53 AM 52.0 °F - 46.9 °F 83% 29.91 in 10.0 mi East 8.1 mph - 0.00 in   Overcast
12:31 PM 51.8 °F - 46.4 °F 82% 29.91 in 5.0 mi North 4.6 mph - 0.00 in Rain Light Rain
12:53 PM 51.1 °F - 46.9 °F 86% 29.91 in 4.0 mi North 4.6 mph - 0.00 in Rain Light Rain
1:11 PM 51.8 °F - 48.2 °F 88% 29.91 in 8.0 mi NNE 5.8 mph - 0.00 in   Overcast
1:53 PM 53.1 °F - 46.9 °F 80% 29.91 in 10.0 mi NNE 5.8 mph - 0.00 in   Overcast
2:53 PM 52.0 °F - 46.9 °F 83% 29.93 in 7.0 mi Variable 3.5 mph - 0.00 in Rain Light Rain
3:53 PM 53.1 °F - 46.0 °F 77% 29.94 in 10.0 mi Calm Calm - N/A   Overcast
4:53 PM 52.0 °F - 46.9 °F 83% 29.94 in 10.0 mi ESE 4.6 mph - N/A   Overcast
5:53 PM 51.1 °F - 46.0 °F 83% 29.97 in 10.0 mi ESE 5.8 mph - N/A   Overcast
6:53 PM 51.1 °F - 46.0 °F 83% 29.99 in 10.0 mi East 3.5 mph - N/A   Overcast
7:53 PM 51.1 °F - 46.0 °F 83% 30.01 in 10.0 mi Calm Calm - N/A   Overcast
8:50 PM 51.8 °F - 46.4 °F 82% 30.04 in 10.0 mi NE 3.5 mph - N/A   Overcast
8:53 PM 51.1 °F - 46.9 °F 86% 30.04 in 10.0 mi Calm Calm - N/A   Overcast
9:53 PM 51.1 °F - 46.9 °F 86% 30.04 in 10.0 mi Calm Calm - N/A   Overcast
10:16 PM 50.0 °F - 46.4 °F 87% 30.04 in 9.0 mi Calm Calm - N/A   Overcast
10:53 PM 51.1 °F - 48.0 °F 89% 30.04 in 10.0 mi Calm Calm - N/A   Overcast
11:18 PM 51.8 °F - 48.2 °F 88% 30.04 in 9.0 mi Calm Calm - N/A   Overcast
11:53 PM 51.1 °F - 48.0 °F 89% 30.04 in 9.0 mi Calm Calm - N/A   Overcast